Weather in Olenegorsk

Russia / Murmansk Oblast     68°08′31″N   33°16′01″E
temp.,
°C
wind,
m/s
gust,
m/s
humid.,
%
clouds,
%
prec.,
mm/h
press.,
hPa
HPBL,
m
4 december, sat
sat400:00−19sse0010038 0.0 10189
03:00−20sse0010035 0.0 10209
06:00−20ssw0010032 0.0 10219
09:00−20s1110063 0.0 102210
12:00−20s1110038 0.0 10239
15:00−21s1110064 0.0 102411
18:00−21s1110071 0.0 102410
21:00−21s1110075 0.0 10259
5 december, sun
sun500:00−20s1110093 0.0 102618
03:00−21s21100100 0.0 102721
06:00−21s21100100 0.0 102722
09:00−21s2210098 0.0 102725
12:00−21s2210098 0.0 102833
15:00−21s2210025 0.0 102833
18:00−21ssw23997 0.0 102839
21:00−21ssw239918 0.0 102841
6 december, mon
mon600:00−21ssw249919 0.0 102762
03:00−21s249930 0.0 102768
06:00−21ssw349847 0.0 102667
09:00−21ssw359841 0.0 102585
12:00−20ssw3610020 0.0 1025103
15:00−21ssw2410048 0.0 102580
18:00−21ssw2410022 0.0 102465
21:00−22ssw249922 0.0 102453
7 december, tue
tue700:00−22ssw23975 0.0 102442
03:00−23ssw239725 0.0 102541
06:00−23ssw229946 0.0 102535
09:00−23s2210019 0.0 102529
12:00−23s2210019 0.0 102630
15:00−23s2210020 0.0 102727
18:00−23s2110019 0.0 102724
21:00−22s2210020 0.0 102727
8 december, wed
wed800:00−22s2210046 0.0 102826
03:00−22s2110046 0.0 102823
06:00−23s1110054 0.0 102717
09:00−22s1110067 0.0 102817
12:00−23s1110081 0.0 102818
15:00−22s1110079 0.0 102818
18:00−22s2110080 0.0 102818
21:00−23s2210081 0.0 102923